User: anonymous
Location: Unspecified
(0.0000°N, 0.0000°E)
Time: 22:49:04
(UTC+00:00)
Language:

Vela 1A - Orbit

View from above orbital plane
View from above orbital plane
View from above satellite
View from above satellite

Ground track
Ground track

The orbit data is extracted from the following two-line orbital elements,

1 00692U 63039C   14290.44240165 -.00001074  00000-0  00000+0 0   128
2 00692 032.1576 009.0447 5765023 144.7105 001.7164 00.22012948 41166
Epoch (UTC): 17 October 2014 10:37:03
Eccentricity: 0.5765023
inclination: 32.1576°
perigee height: 42689 km
apogee height: 176280 km
right ascension of ascending node: 9.0447°
argument of perigee: 144.7105°
revolutions per day: 0.22012948
mean anomaly at epoch: 1.7164°
orbit number at epoch: 4116

The dashed part of the orbit path shows where the satellite is in the earth's shadow,  

DLR